Retour au catalogue

YAOGAN 2 DEB

ActifMilitaireSSO
NORAD 38262·DEBRIS·🇨🇳 China

Lancé May 25, 2007 depuis Jiuquan Satellite Launch Center

Loading…

Prochains Passages (prochaines 24 heures)

TLE

FraisSource: Space-Track

Époque: Sep 14, 2026, 13:04 UTC

1 38262U 07019B   26257.54512822  .00002001  00000-0  45286-3 0  9990
2 38262  97.8363 162.1138 0150222  57.7993  64.2785 14.50420773984414

Suivez YAOGAN 2 DEB en temps réel avec AllMySat

Download on the App Store